Find Starlink 31315

NORAD ID: 58884 Int'l Des: 2024-020 Owner: SPXS Country: US Constellation: starlink operational
LEOCIRCULAR

Current View

Loading 3D Globe...

About Starlink 31315

Starlink 31315 (NORAD 58884) is a starlink constellation satellite (v2 mini) launched Jan 29, 2024 by SPXS of US. It operates in LEO, CIRCULAR orbit with a mass of 730.00 kg.

About Starlink 31315

Description loading...

Upcoming Passes

Passes for default location (London). Set your location on the main map for personalized predictions.

Altitude History

Loading altitude history...

Two-Line Element Set

1 58884U 24020J 26173.70911047 -.00000395 00000-0 -12255-5 0 9998
2 58884 53.1591 168.6629 0001366 90.4866 269.6291 15.30189451134512
Epoch: Jun 22, 2026 • Age: 18 hours

Current Status

Altitude 479.0 km
Velocity 7.63 km/s
Sub-Earth Point 44.34°N, 142.5°E
Launch Date Jan 29, 2024
Age 2.3 years
Type internet

Technical Details

Classification Payload
Mass 730.00 kg
Dry Mass 700.00 kg
Total Mass 730.00 kg
Length 0.30 m
Diameter 4.10 m
Span 29.00 m
Shape Box + pan
Manufacturer SPXS
Bus Type Starlink V2M
Phase Status In Orbit
Owner/State SPXS/US

Most Searched